ITY575 LIRF-LSGG

Flight info

Callsign ITY575
Flight time 1h 7m
Altitude 32000
Route NEMBO DCT GOVGO DCT SPEZI DCT IDONA DCT TONDA DCT AOSTA L615 BANKO
Aircraft A21N/M-SDE2E3FGHIRWXY/LB1

Departure

Time 2026-05-05 07:59
Airport Rome–Fiumicino Leonardo da Vinci International Airport (LIRF)

Arrival

Time 2026-05-05 09:06
Airport Geneva International Airport (LSGG)
Time Latitude Longitude Altitude Speed Heading
2026-05-05 07:43 41.79701 12.24616 19 ft 0 kts 69°
2026-05-05 07:46 41.79701 12.24614 19 ft 2 kts 69°
2026-05-05 07:46 41.79697 12.24598 23 ft 4 kts 69°
2026-05-05 07:46 41.79695 12.24591 19 ft 4 kts 70°
2026-05-05 07:46 41.79691 12.24579 19 ft 4 kts 70°
2026-05-05 07:47 41.79680 12.24547 23 ft 4 kts 52°
2026-05-05 07:47 41.79661 12.24525 21 ft 4 kts 18°
2026-05-05 07:47 41.79640 12.24524 19 ft 1 kts 339°
2026-05-05 07:47 41.79636 12.24526 22 ft 0 kts 339°
2026-05-05 07:50 41.79656 12.24516 23 ft 6 kts 339°
2026-05-05 07:50 41.79701 12.24494 19 ft 8 kts 339°
2026-05-05 07:50 41.79762 12.24463 19 ft 11 kts 340°
2026-05-05 07:51 41.79839 12.24425 19 ft 12 kts 339°
2026-05-05 07:51 41.79896 12.24441 20 ft 10 kts 50°
2026-05-05 07:51 41.79929 12.24541 21 ft 13 kts 70°
2026-05-05 07:51 41.79963 12.24663 19 ft 15 kts 70°
2026-05-05 07:52 41.79991 12.24765 21 ft 5 kts 65°
2026-05-05 07:52 41.80029 12.24795 19 ft 9 kts
2026-05-05 07:52 41.80096 12.24770 19 ft 11 kts 352°
2026-05-05 07:52 41.80176 12.24797 21 ft 13 kts 44°
2026-05-05 07:53 41.80208 12.24921 19 ft 16 kts 90°
2026-05-05 07:53 41.80215 12.25093 21 ft 21 kts 75°
2026-05-05 07:53 41.80268 12.25298 19 ft 25 kts 69°
2026-05-05 07:53 41.80332 12.25521 23 ft 26 kts 69°
2026-05-05 07:54 41.80396 12.25758 21 ft 28 kts 70°
2026-05-05 07:54 41.80465 12.26008 20 ft 29 kts 70°
2026-05-05 07:54 41.80536 12.26272 21 ft 31 kts 70°
2026-05-05 07:54 41.80610 12.26546 22 ft 32 kts 70°
2026-05-05 07:55 41.80676 12.26789 20 ft 17 kts 69°
2026-05-05 07:55 41.80721 12.26943 21 ft 19 kts 69°
2026-05-05 07:55 41.80767 12.27042 19 ft 12 kts 18°
2026-05-05 07:55 41.80851 12.27021 19 ft 10 kts 340°
2026-05-05 07:56 41.80871 12.27011 19 ft 0 kts 340°
2026-05-05 07:57 41.80888 12.27003 19 ft 8 kts 340°
2026-05-05 07:57 41.80946 12.26968 18 ft 10 kts 308°
2026-05-05 07:58 41.80942 12.26855 19 ft 23 kts 249°
2026-05-05 07:58 41.80797 12.26341 23 ft 97 kts 249°
2026-05-05 07:58 41.80481 12.25195 21 ft 161 kts 250°
2026-05-05 07:58 41.80080 12.23646 372 ft 181 kts 248°
2026-05-05 07:59 41.79676 12.22038 1019 ft 183 kts 245°
2026-05-05 07:59 41.79317 12.20370 1718 ft 195 kts 256°
2026-05-05 07:59 41.79245 12.18488 2343 ft 208 kts 262°
2026-05-05 07:59 41.79193 12.16471 2922 ft 228 kts 262°
2026-05-05 08:00 41.79133 12.14251 3523 ft 246 kts 263°
2026-05-05 08:00 41.79073 12.11927 4390 ft 251 kts 264°
2026-05-05 08:00 41.79011 12.09578 5414 ft 253 kts 265°
2026-05-05 08:00 41.78991 12.07213 6395 ft 255 kts 268°
2026-05-05 08:01 41.78997 12.04819 7286 ft 259 kts 268°
2026-05-05 08:01 41.78998 12.02391 8174 ft 262 kts 268°
2026-05-05 08:01 41.78996 11.99932 9081 ft 265 kts 268°
2026-05-05 08:01 41.78990 11.97448 9965 ft 268 kts 268°
2026-05-05 08:02 41.78985 11.94896 10551 ft 282 kts 268°
2026-05-05 08:02 41.78980 11.92187 11002 ft 298 kts 268°
2026-05-05 08:02 41.78973 11.89373 11687 ft 305 kts 268°
2026-05-05 08:02 41.79094 11.86512 12483 ft 311 kts 278°
2026-05-05 08:03 41.79850 11.83775 13283 ft 320 kts 296°
2026-05-05 08:03 41.81286 11.81452 14061 ft 331 kts 314°
2026-05-05 08:03 41.83099 11.79513 14787 ft 336 kts 318°
2026-05-05 08:03 41.84981 11.77613 15505 ft 341 kts 318°
2026-05-05 08:04 41.86874 11.75676 16222 ft 344 kts 317°
2026-05-05 08:04 41.88782 11.73690 16964 ft 349 kts 317°
2026-05-05 08:04 41.90639 11.71720 17700 ft 353 kts 317°
2026-05-05 08:04 41.92615 11.69623 18466 ft 358 kts 317°
2026-05-05 08:05 41.94579 11.67539 19118 ft 361 kts 317°
2026-05-05 08:05 41.96560 11.65446 19758 ft 363 kts 317°
2026-05-05 08:05 41.98544 11.63334 20374 ft 365 kts 317°
2026-05-05 08:05 42.00541 11.61203 20993 ft 368 kts 317°
2026-05-05 08:06 42.02550 11.59055 21600 ft 370 kts 317°
2026-05-05 08:06 42.04579 11.56898 22198 ft 373 kts 317°
2026-05-05 08:06 42.06619 11.54728 22791 ft 375 kts 316°
2026-05-05 08:06 42.08669 11.52536 23377 ft 378 kts 316°
2026-05-05 08:07 42.10737 11.50324 23917 ft 381 kts 316°
2026-05-05 08:07 42.12818 11.48096 24407 ft 383 kts 316°
2026-05-05 08:07 42.14907 11.45855 24900 ft 385 kts 316°
2026-05-05 08:07 42.17009 11.43595 25385 ft 387 kts 316°
2026-05-05 08:08 42.19123 11.41330 25862 ft 390 kts 316°
2026-05-05 08:08 42.21252 11.39050 26327 ft 392 kts 316°
2026-05-05 08:08 42.23388 11.36757 26800 ft 393 kts 316°
2026-05-05 08:08 42.25535 11.34449 27233 ft 395 kts 316°
2026-05-05 08:09 42.27687 11.32132 27662 ft 397 kts 316°
2026-05-05 08:09 42.29858 11.29796 28072 ft 399 kts 316°
2026-05-05 08:09 42.32034 11.27449 28477 ft 402 kts 316°
2026-05-05 08:09 42.34224 11.25085 28867 ft 404 kts 316°
2026-05-05 08:10 42.36420 11.22707 29262 ft 406 kts 316°
2026-05-05 08:10 42.38632 11.20311 29661 ft 408 kts 316°
2026-05-05 08:10 42.40852 11.17909 30043 ft 411 kts 315°
2026-05-05 08:10 42.43092 11.15482 30389 ft 413 kts 315°
2026-05-05 08:11 42.45335 11.13048 30722 ft 415 kts 316°
2026-05-05 08:11 42.47592 11.10600 31033 ft 416 kts 316°
2026-05-05 08:11 42.49857 11.08141 31344 ft 418 kts 316°
2026-05-05 08:11 42.52128 11.05671 31644 ft 420 kts 316°
2026-05-05 08:12 42.54406 11.03193 31960 ft 420 kts 316°
2026-05-05 08:12 42.56676 11.00712 32331 ft 419 kts 315°
2026-05-05 08:12 42.58939 10.98231 32711 ft 417 kts 315°
2026-05-05 08:12 42.61194 10.95768 33056 ft 416 kts 315°
2026-05-05 08:13 42.63422 10.93343 33400 ft 415 kts 315°
2026-05-05 08:13 42.65673 10.90886 33734 ft 414 kts 315°
2026-05-05 08:13 42.67917 10.88431 34031 ft 414 kts 315°
2026-05-05 08:13 42.70156 10.85977 34314 ft 413 kts 315°
2026-05-05 08:14 42.72397 10.83525 34570 ft 413 kts 315°
2026-05-05 08:14 42.74629 10.81077 34823 ft 412 kts 315°
2026-05-05 08:14 42.76861 10.78627 35063 ft 412 kts 315°
2026-05-05 08:14 42.79086 10.76172 35298 ft 411 kts 315°
2026-05-05 08:15 42.81308 10.73724 35543 ft 411 kts 315°
2026-05-05 08:15 42.83530 10.71276 35771 ft 411 kts 315°
2026-05-05 08:15 42.85749 10.68827 35981 ft 410 kts 315°
2026-05-05 08:15 42.87965 10.66376 36041 ft 410 kts 315°
2026-05-05 08:16 42.92395 10.61474 36009 ft 410 kts 315°
2026-05-05 08:16 42.96825 10.56568 36000 ft 410 kts 315°
2026-05-05 08:17 43.01260 10.51655 35997 ft 411 kts 315°
2026-05-05 08:17 43.05694 10.46723 35989 ft 411 kts 315°
2026-05-05 08:18 43.10126 10.41783 35997 ft 411 kts 315°
2026-05-05 08:18 43.14558 10.36827 35987 ft 412 kts 315°
2026-05-05 08:19 43.18951 10.31790 35987 ft 411 kts 313°
2026-05-05 08:19 43.23219 10.26579 35984 ft 411 kts 313°
2026-05-05 08:20 43.27503 10.21362 35979 ft 412 kts 313°
2026-05-05 08:20 43.31784 10.16141 35978 ft 412 kts 313°
2026-05-05 08:21 43.36030 10.10931 35974 ft 412 kts 313°
2026-05-05 08:21 43.40313 10.05678 35969 ft 413 kts 313°
2026-05-05 08:22 43.44595 10.00412 35969 ft 413 kts 313°
2026-05-05 08:22 43.48874 9.95140 35970 ft 413 kts 313°
2026-05-05 08:23 43.53153 9.89857 35970 ft 413 kts 312°
2026-05-05 08:23 43.57425 9.84562 35968 ft 413 kts 312°
2026-05-05 08:24 43.61709 9.79256 35961 ft 414 kts 312°
2026-05-05 08:24 43.65989 9.73944 35961 ft 414 kts 312°
2026-05-05 08:25 43.70267 9.68616 35955 ft 414 kts 312°
2026-05-05 08:25 43.74552 9.63277 35954 ft 415 kts 312°
2026-05-05 08:26 43.79072 9.58260 35950 ft 423 kts 323°
2026-05-05 08:26 43.84213 9.54224 35946 ft 425 kts 324°
2026-05-05 08:27 43.89372 9.50205 35946 ft 426 kts 324°
2026-05-05 08:27 43.94540 9.46175 35947 ft 426 kts 324°
2026-05-05 08:28 43.99605 9.41930 35939 ft 422 kts 318°
2026-05-05 08:28 44.04294 9.37039 35947 ft 422 kts 317°
2026-05-05 08:29 44.08983 9.32120 35941 ft 423 kts 317°
2026-05-05 08:30 44.16032 9.24725 35941 ft 424 kts 317°
2026-05-05 08:30 44.20713 9.19812 35948 ft 424 kts 317°
2026-05-05 08:31 44.25422 9.14848 35945 ft 425 kts 317°
2026-05-05 08:31 44.30132 9.09854 35952 ft 425 kts 317°
2026-05-05 08:32 44.34851 9.04857 35968 ft 426 kts 317°
2026-05-05 08:32 44.39574 8.99839 35986 ft 427 kts 317°
2026-05-05 08:33 44.44298 8.94803 35966 ft 428 kts 317°
2026-05-05 08:33 44.48278 8.90591 35968 ft 428 kts 317°
2026-05-05 08:34 44.53030 8.85546 35967 ft 429 kts 317°
2026-05-05 08:34 44.57747 8.80500 35973 ft 430 kts 317°
2026-05-05 08:35 44.62505 8.75422 35971 ft 430 kts 317°
2026-05-05 08:35 44.67266 8.70315 35973 ft 431 kts 316°
2026-05-05 08:36 44.72019 8.65196 35981 ft 431 kts 317°
2026-05-05 08:36 44.76782 8.60059 35988 ft 432 kts 316°
2026-05-05 08:37 44.81556 8.54906 35984 ft 433 kts 316°
2026-05-05 08:37 44.86336 8.49737 35988 ft 434 kts 316°
2026-05-05 08:38 44.91128 8.44543 35982 ft 435 kts 316°
2026-05-05 08:38 44.95923 8.39329 35982 ft 435 kts 316°
2026-05-05 08:39 45.00726 8.34100 35981 ft 436 kts 316°
2026-05-05 08:39 45.05528 8.28856 35979 ft 437 kts 316°
2026-05-05 08:40 45.10334 8.23583 35978 ft 437 kts 315°
2026-05-05 08:40 45.14888 8.17945 35978 ft 435 kts 312°
2026-05-05 08:41 45.19391 8.12218 35978 ft 435 kts 312°
2026-05-05 08:41 45.23905 8.06485 35982 ft 436 kts 312°
2026-05-05 08:42 45.28420 8.00719 35975 ft 437 kts 312°
2026-05-05 08:42 45.32943 7.94939 35974 ft 438 kts 312°
2026-05-05 08:43 45.37444 7.89191 35986 ft 438 kts 312°
2026-05-05 08:43 45.41979 7.83379 35987 ft 439 kts 312°
2026-05-05 08:44 45.46512 7.77548 35731 ft 439 kts 312°
2026-05-05 08:44 45.48770 7.74636 35280 ft 438 kts 312°
2026-05-05 08:44 45.51030 7.71718 34769 ft 438 kts 312°
2026-05-05 08:44 45.53288 7.68807 34266 ft 438 kts 312°
2026-05-05 08:45 45.55542 7.65892 33733 ft 438 kts 312°
2026-05-05 08:45 45.57803 7.62969 33141 ft 438 kts 313°
2026-05-05 08:45 45.60059 7.60048 32558 ft 438 kts 313°
2026-05-05 08:45 45.62310 7.57129 31992 ft 434 kts 313°
2026-05-05 08:46 45.64532 7.54245 31430 ft 431 kts 313°
2026-05-05 08:46 45.66742 7.51376 30880 ft 427 kts 313°
2026-05-05 08:46 45.68935 7.48528 30339 ft 424 kts 313°
2026-05-05 08:46 45.71103 7.45702 29757 ft 419 kts 312°
2026-05-05 08:47 45.72903 7.42529 29145 ft 405 kts 295°
2026-05-05 08:47 45.74193 7.38990 28577 ft 398 kts 291°
2026-05-05 08:47 45.75387 7.35430 28016 ft 394 kts 290°
2026-05-05 08:47 45.76570 7.31910 27526 ft 390 kts 291°
2026-05-05 08:48 45.77762 7.28444 27043 ft 386 kts 291°
2026-05-05 08:48 45.78952 7.25027 26584 ft 381 kts 291°
2026-05-05 08:48 45.80128 7.21648 26119 ft 377 kts 291°
2026-05-05 08:48 45.81294 7.18294 25667 ft 375 kts 291°
2026-05-05 08:49 45.82453 7.14964 25226 ft 372 kts 292°
2026-05-05 08:49 45.83605 7.11655 24781 ft 369 kts 292°
2026-05-05 08:49 45.84742 7.08378 24320 ft 366 kts 292°
2026-05-05 08:49 45.85875 7.05113 23859 ft 364 kts 292°
2026-05-05 08:50 45.86995 7.01876 23383 ft 361 kts 292°
2026-05-05 08:50 45.88102 6.98664 22848 ft 359 kts 292°
2026-05-05 08:50 45.89207 6.95467 22318 ft 356 kts 292°
2026-05-05 08:50 45.90301 6.92295 21805 ft 353 kts 292°
2026-05-05 08:51 45.91386 6.89153 21253 ft 351 kts 292°
2026-05-05 08:51 45.92466 6.86021 20677 ft 350 kts 292°
2026-05-05 08:51 45.93546 6.82880 20085 ft 350 kts 293°
2026-05-05 08:51 45.94621 6.79744 19507 ft 350 kts 293°
2026-05-05 08:52 45.95732 6.76639 18913 ft 349 kts 297°
2026-05-05 08:52 45.97020 6.73755 18351 ft 346 kts 301°
2026-05-05 08:52 45.98350 6.70903 17718 ft 342 kts 301°
2026-05-05 08:52 45.99668 6.68085 17072 ft 337 kts 301°
2026-05-05 08:53 46.00964 6.65303 16461 ft 332 kts 301°
2026-05-05 08:53 46.02237 6.62559 15865 ft 327 kts 300°
2026-05-05 08:53 46.03491 6.59852 15286 ft 324 kts 300°
2026-05-05 08:53 46.04733 6.57170 14702 ft 320 kts 300°
2026-05-05 08:54 46.05956 6.54532 14114 ft 315 kts 300°
2026-05-05 08:54 46.07186 6.51924 13513 ft 314 kts 300°
2026-05-05 08:54 46.08413 6.49339 12872 ft 311 kts 300°
2026-05-05 08:54 46.09626 6.46781 12241 ft 307 kts 300°
2026-05-05 08:55 46.10826 6.44243 11640 ft 305 kts 300°
2026-05-05 08:55 46.12018 6.41724 11014 ft 302 kts 299°
2026-05-05 08:55 46.13188 6.39243 10415 ft 297 kts 299°
2026-05-05 08:55 46.14338 6.36804 9841 ft 292 kts 299°
2026-05-05 08:56 46.15470 6.34397 9210 ft 288 kts 300°
2026-05-05 08:56 46.16599 6.32033 8587 ft 286 kts 303°
2026-05-05 08:56 46.18041 6.30054 7968 ft 290 kts 326°
2026-05-05 08:56 46.19944 6.29082 7373 ft 294 kts 353°
2026-05-05 08:57 46.21932 6.29433 6989 ft 294 kts 19°
2026-05-05 08:57 46.23671 6.30898 6811 ft 286 kts 43°
2026-05-05 08:57 46.25058 6.32935 6466 ft 281 kts 49°
2026-05-05 08:57 46.26368 6.34997 6040 ft 277 kts 49°
2026-05-05 08:58 46.27665 6.37006 5721 ft 269 kts 48°
2026-05-05 08:58 46.28945 6.38937 5304 ft 261 kts 47°
2026-05-05 08:58 46.30177 6.40766 5012 ft 244 kts 47°
2026-05-05 08:58 46.31325 6.42462 4976 ft 232 kts 47°
2026-05-05 08:59 46.32426 6.44088 4964 ft 222 kts 47°
2026-05-05 08:59 46.33514 6.45663 4963 ft 227 kts 40°
2026-05-05 08:59 46.34936 6.46628 4969 ft 230 kts
2026-05-05 08:59 46.36528 6.46668 4978 ft 230 kts 347°
2026-05-05 09:00 46.37954 6.45711 4977 ft 227 kts 317°
2026-05-05 09:00 46.38865 6.43898 4990 ft 223 kts 287°
2026-05-05 09:00 46.39153 6.41719 5000 ft 220 kts 273°
2026-05-05 09:00 46.39303 6.39512 5043 ft 221 kts 273°
2026-05-05 09:01 46.39445 6.37352 5039 ft 210 kts 273°
2026-05-05 09:01 46.39431 6.35267 4993 ft 204 kts 253°
2026-05-05 09:01 46.38841 6.33462 4993 ft 198 kts 234°
2026-05-05 09:01 46.38000 6.31891 4948 ft 196 kts 227°
2026-05-05 09:02 46.37091 6.30482 4768 ft 188 kts 223°
2026-05-05 09:02 46.36188 6.29138 4534 ft 184 kts 224°
2026-05-05 09:02 46.35307 6.27835 4281 ft 180 kts 224°
2026-05-05 09:02 46.34431 6.26543 4048 ft 179 kts 224°
2026-05-05 09:03 46.33555 6.25248 3812 ft 180 kts 224°
2026-05-05 09:03 46.32690 6.23972 3577 ft 180 kts 224°
2026-05-05 09:03 46.31816 6.22682 3340 ft 179 kts 224°
2026-05-05 09:03 46.30947 6.21401 3104 ft 175 kts 224°
2026-05-05 09:04 46.30130 6.20196 2897 ft 163 kts 224°
2026-05-05 09:04 46.29386 6.19099 2651 ft 142 kts 224°
2026-05-05 09:04 46.28711 6.18105 2433 ft 138 kts 225°
2026-05-05 09:04 46.28043 6.17121 2247 ft 138 kts 226°
2026-05-05 09:05 46.27368 6.16127 2060 ft 138 kts 226°
2026-05-05 09:05 46.26697 6.15138 1871 ft 137 kts 226°
2026-05-05 09:05 46.26028 6.14155 1689 ft 137 kts 226°
2026-05-05 09:05 46.25361 6.13184 1497 ft 136 kts 225°
2026-05-05 09:06 46.24713 6.12227 1386 ft 126 kts 225°
2026-05-05 09:06 46.24179 6.11442 1379 ft 86 kts 225°
2026-05-05 09:06 46.23878 6.10999 1382 ft 41 kts 225°
2026-05-05 09:06 46.23701 6.10792 1385 ft 22 kts 210°
2026-05-05 09:07 46.23559 6.10712 1388 ft 19 kts 196°
2026-05-05 09:07 46.23506 6.10691 1399 ft 7 kts 195°
2026-05-05 09:07 46.23475 6.10678 1395 ft 0 kts 195°
2026-05-05 09:07 46.23472 6.10677 1395 ft 3 kts 195°
2026-05-05 09:08 46.23410 6.10648 1402 ft 12 kts 210°
2026-05-05 09:08 46.23342 6.10560 1405 ft 7 kts 225°
2026-05-05 09:08 46.23292 6.10514 1404 ft 10 kts 168°
2026-05-05 09:08 46.23236 6.10588 1398 ft 8 kts 134°
2026-05-05 09:09 46.23193 6.10649 1402 ft 9 kts 147°
2026-05-05 09:09 46.23135 6.10613 1408 ft 5 kts 225°
2026-05-05 09:09 46.23106 6.10571 1401 ft 7 kts 225°
2026-05-05 09:09 46.23064 6.10511 1398 ft 10 kts 225°
2026-05-05 09:10 46.23028 6.10464 1398 ft 6 kts 201°
2026-05-05 09:10 46.23012 6.10462 1400 ft 3 kts 172°
2026-05-05 09:10 46.22990 6.10477 1404 ft 4 kts 141°
2026-05-05 09:10 46.22980 6.10492 1401 ft 0 kts 136°